This demonstration page uses our WeatherBlox Daily Observations layout. Learn more.

Left ArrowRight Arrow

Hourly Observations for June 11, 2015

Temp ( °F °C ) Dew Point ( °F °C ) Humidity (%) Winds ( mph kmh ) Pressure ( in mb ) Visibility ( mi km ) Precip ( " mm )
12:59 am 00:59 Mostly Clear 81 27.2 71 21.7 72 72 SSW 7 11 29.96 1014 10 16 0.00 0.00
1:59 am 01:59 Clear 80 26.7 71 21.7 74 74 SSW 7 11 29.95 1014 10 16 0.00 0.00
2:59 am 02:59 Clear 80 26.7 71 21.7 74 74 SSW 7 11 29.95 1014 10 16 0.00 0.00
3:59 am 03:59 Clear 79 26.1 71 21.7 77 77 SW 7 11 29.95 1014 9 14 0.00 0.00
4:59 am 04:59 Clear 78 25.6 71 21.7 79 79 SW 6 9 29.96 1015 9 14 0.00 0.00
5:59 am 05:59 Mostly Sunny 78 25.6 71 21.7 79 79 VRB 3 6 29.98 1015 7 11 0.00 0.00
6:59 am 06:59 Hazy 79 26.1 71 21.7 77 77 SSW 6 9 29.99 1016 6 10 0.00 0.00
7:59 am 07:59 Sunny 81 27.2 72 22.2 74 74 SSW 7 11 30.01 1016 8 13 0.00 0.00
8:59 am 08:59 Sunny 84 28.9 72 22.2 67 67 VRB 3 6 30.02 1017 8 13 0.00 0.00
9:59 am 09:59 Sunny 86 30 73 22.8 65 65 VRB 6 9 30.02 1017 8 13 0.00 0.00
10:59 am 10:59 Mostly Sunny 87 30.6 73 22.8 63 63 SW 7 11 30.01 1016 8 13 0.00 0.00
11:59 am 11:59 Mostly Sunny 92 33.3 72 22.2 52 52 SSW 7 11 30.01 1016 9 14 0.00 0.00
12:59 pm 12:59 Mostly Sunny 94 34.4 73 22.8 51 51 VRB 3 6 30.00 1016 9 14 0.00 0.00
1:59 pm 13:59 Mostly Sunny 95 35 71 21.7 46 46 SW 6 9 30.00 1016 9 14 0.00 0.00
2:59 pm 14:59 Mostly Sunny 94 34.4 74 23.3 52 52 NNE 5 7 29.98 1015 8 13 0.00 0.00
3:59 pm 15:59 Partly Cloudy 92 33.3 74 23.3 56 56 N 7 11 29.97 1015 9 14 0.00 0.00
4:59 pm 16:59 Partly Cloudy 93 33.9 74 23.3 54 54 ENE 8 13 29.95 1014 9 14 0.00 0.00
5:59 pm 17:59 Partly Cloudy 92 33.3 74 23.3 56 56 Calm 29.95 1014 9 14 0.00 0.00
6:59 pm 18:59 Partly Cloudy 94 34.4 73 22.8 51 51 SSW 7 11 29.95 1014 10 16 0.00 0.00
7:59 pm 19:59 Partly Cloudy 92 33.3 74 23.3 56 56 SSW 7 11 29.96 1015 10 16 0.00 0.00
8:59 pm 20:59 Partly Cloudy 90 32.2 73 22.8 58 58 SSW 7 11 29.98 1015 10 16 0.00 0.00
9:59 pm 21:59 Mostly Clear 89 31.7 74 23.3 61 61 SSW 7 11 30.00 1016 10 16 0.00 0.00
10:59 pm 22:59 Mostly Clear 87 30.6 74 23.3 65 65 SSW 9 15 30.01 1016 10 16 0.00 0.00
11:59 pm 23:59 Mostly Clear 85 29.4 74 23.3 70 70 SSW 8 13 30.01 1016 10 16 0.00 0.00

Powered by AerisWeather